Regional Weather Roundup
Issued by NWS Cleveland, OH

Home | Current Version | Previous Version | Graphics & Text | Print | Product List | Glossary On
Versions: 1 2 3 4 5 6 7 8 9 10 11 12 13 14 15 16 17 18 19 20 21 22 23 24 25 26 27 28 29 30 31 32 33 34 35 36 37 38 39 40 41 42 43 44 45 46 47 48 49 50
000
ASUS41 KCLE 231200
RWRCLE
OHIO REGIONAL WEATHER ROUNDUP
NATIONAL WEATHER SERVICE WILMINGTON, OH
800 AM EDT MON OCT 23 2017

NOTE: "FAIR" INDICATES FEW OR NO CLOUDS BELOW 12,000 FEET WITH NO
SIGNIFICANT WEATHER AND/OR OBSTRUCTIONS TO VISIBILITY.

OHZ001>008-015>018-024>027-034-035-043-044-231300-
   NORTHWEST OHIO

CITY           SKY/WX    TMP DP  RH WIND       PRES   REMARKS
DEFIANCE       MOCLDY    64  51  62 SE6       29.87F
FINDLAY        MOCLDY    64  51  62 SE9       29.90F
TOLEDO EXPRESS FAIR      63  53  70 SE6       29.89F
TOLEDO EXEC    FAIR      63  52  67 SE10      29.90F
LIMA           MOCLDY    64  53  67 SE10      29.89F
$$

OHZ009>014-019>023-028>033-038-089-231300-
   NORTHEAST OHIO

CITY           SKY/WX    TMP DP  RH WIND       PRES   REMARKS
CLE-HOPKINS    CLOUDY    64  52  64 S10       29.99F
CLE-LAKEFRONT  CLOUDY    65  50  58 SE14G21   29.96F
CUY CO. ARPT   MOCLDY    64  52  63 SE12      29.99F
LORAIN-ELYRIA  NOT AVBL
ASHTABULA      CLOUDY    61  51  70 SE10      30.02F
AKRON-CANTON   MOCLDY    61  49  64 SE12      30.00F
WOOSTER        NOT AVBL
MANSFIELD      FAIR      62  52  69 SE12      29.96F
YOUNGSTOWN     CLOUDY    59  51  75 SE10      30.04F
$$

OHZ042-051>053-060>062-070>072-077>081-231300-
  SOUTHWEST OHIO

CITY           SKY/WX    TMP DP  RH WIND       PRES   REMARKS
CINC-COVINGTON LGT RAIN  63  58  83 SE10      29.84F
CINC-LUNKEN    LGT RAIN  65  58  78 VRB3      29.86F
HAMILTON       LGT RAIN  64  57  78 VRB3      29.86F
DAYTON         NOT AVBL
WRIGHT-PAT AFB NOT AVBL
DAYTON GENERAL CLOUDY    65  54  67 SE8       29.87F
WILMINGTON     MOCLDY    63  55  75 SE12      29.88F
$$

OHZ036-037-039>041-045>050-054>059-063>069-073>076-082>088-231300-
  CENTRAL AND SOUTHEAST OHIO

CITY           SKY/WX    TMP DP  RH WIND       PRES   REMARKS
COLUMBUS       CLOUDY    64  53  67 SE9       29.93F
OSU AIRPORT    CLOUDY    62  54  74 E8        29.93F
BOLTON FIELD   PTCLDY    63  54  72 SE3       29.93F
RICKENBACK AFB NOT AVBL
NEWARK         CLOUDY    64  52  64 CALM      29.95F
MARION         FAIR      63  51  65 SE12      29.94F
LANCASTER      FAIR      61  53  75 SE6       29.94F
ZANESVILLE     FAIR      64  53  67 SE8       29.98F
NEW PHILLY     FAIR      60  51  72 SE7       30.01F
$$



USA.gov is the U.S. government's official web portal to all federal, state and local government web resources and services.